Not that which goeth into the mouth defileth a man; but that which cometh out of the mouth, this defileth a man.
Matthew 15:11 KJ
pause

Enter Zip Code:

Current conditions for: Simi Valley, CA, US - Location: 34.26  -118.75 on Tue, 20 Mar 2007 9:51 pm PDT:
cloud or sun
cloud or sun
cloud or sun

Currently:
Cloudy
Visibility: 1,609.0 miles
Temp: 53° F     Humidity: 86%
Wind: Calm
Feels like: 53 ° F
Pressure: 30.01 in and rising
Sunrise: 6:59 am  Sunset: 7:06 pm
Forecast for Tue:
Showers Early
64° F / 47° F
Forecast for Wed:
Partly Cloudy
67° F / 47° F



Data courtesy of Yahoo! Weather

Enter 4 Letter Airport ID:

Current Observation for KDFW :

2020/06/02 20:53
KDFW 022053Z 17009KT 10SM BKN050 BKN060TCU 32/20 A3000 RMK AO2 SLP150 TCU ALQDS 60000 T03170200 57019

Forecast for KDFW :

2020/06/02 21:06
TAF 
      AMD KDFW 022103Z 0221/0324 18011KT P6SM VCTS BKN045CB 
     FM030000 16008KT P6SM SCT050 SCT150 
     FM031400 20013KT P6SM SCT070
GOES Pacific Coast Color Satellite View
GOES Pacific Coast Color Satellite View
GOES Hurricane Color Satellite View
GOES Hurricane Color Satellite View
  Movies and Other Links
(May take a while to load)
East Coast Movie
West Coast Movie
GOES East Full Disk
GOES West Full Disk
S Plains Radar View
Southern Plains Radar View
N Texas Radar View
Dallas Ft Worth Area View
Southern Rockies Radar View
North Texas - Oklahoma Radar View
CONUS Visible
CONUS Visible
CONUS IR
CONUS IR
CONUS Water Vapor
CONUS Water Vapor